Other Public Products
Issued by NWS Charleston, SC

Current Version | Previous Version | Graphics & Text | Print | Product List | Glossary On
Versions: 1 2 3 4 5 6 7 8 9 10 11 12 13 14 15 16 17 18 19 20 21 22 23 24 25 26 27 28 29 30 31 32 33 34 35 36 37 38 39 40 41 42 43 44 45 46 47 48 49 50
757
FPUS82 KCHS 240727
OPUCHS

TEST...KCHS/KSAV Gateway Observations...TEST
National Weather Service Charleston SC
300 AM EDT MON JUL 24 2017

NOTE: "fair" indicates few or no clouds below 12,000 feet with no
significant weather and/or obstructions to visibility.

SCZ050-WAZ558-NCZ071-TXZ119-213-PAZ071-DCZ001-FLZ074-172-MI076-
NYZ176-178-MAZ016-IL014-TNZ027-NJZ106-GAZ044-MD014-240800-

...Gateway Observations for Charleston International...

CITY           SKY/WX    TMP DP  RH WIND       PRES   REMARKS
Chas Airport   MOCLDY    79  74  84 SW7       29.91F
Seattle        CLEAR     65  54  67 NE12      30.03S
Charlotte      PTCLDY    73  69  87 W5        29.87F
Dallas DFW     RAIN      75  74  96 W18       29.99S FOG
Dallas Love    LGT RAIN  75  73  93 NW10      29.97F
Philladelphia  TSTM      71  70  96 NE6       29.76F FOG
Wash National  CLOUDY    77  74  90 S8        29.74F
Baltimore      MOCLDY    71  71 100 W7        29.73F
Miami          PTCLDY    83  75  77 CALM      30.01F HX  90
Detroit        CLOUDY    67  65  93 NW5       29.81F
Newark         CLOUDY    74  66  76 E10       29.79F
Laguardia      CLOUDY    72  68  87 E10       29.79F
J F K          CLOUDY    73  68  84 E10       29.82F
Boston Logan   CLOUDY    65  58  78 NE3       29.94
Ft. Lauderdale PTCLDY    83  76  79 CALM      30.01S HX  91
Chicago O`Hare MOCLDY    69  61  75 NE15      29.91R
Chicago Midway MOCLDY    70  64  81 N9        29.90S
Houston Bush   CLOUDY    83  75  77 SW5       29.93S HX  90
Houston Hobby  CLOUDY    82  75  79 S7        29.92F
Nashville      CLOUDY    72  69  90 SE5       29.93F
Atlanta        CLOUDY    78  74  87 S6        29.95R

$$

GAZ044-118-TXZ119-213-NCZ071-DCZ001-MDZ014-506-PAZ021-071-NJZ106-
NYZ176-178-MAZ106-OHZ011-021-055-MIZ076-KYZ091-ILZ014-INZ047-
MNZ060-ONZ431-240800-

...Gateway Observations for Savannah International...

CITY           SKY/WX    TMP DP  RH WIND       PRES   REMARKS
Savannah Arpt  CLOUDY   N/A N/A N/A SW10      29.94F
Atlanta        CLOUDY    78  74  87 S6        29.95R
Charlotte      PTCLDY    73  69  87 W5        29.87F
Dallas DFW     RAIN      75  74  96 W18       29.99S FOG
Houston Bush   CLOUDY    83  75  77 SW5       29.93S HX  90
Wash National  CLOUDY    77  74  90 S8        29.74F
Wash Dulles    CLOUDY    74  73  97 W3        29.75S
Baltimore      MOCLDY    71  71 100 W7        29.73F
Philadelphia   TSTM      71  70  96 NE6       29.76F FOG
Newark         CLOUDY    74  66  76 E10       29.79F
Laguardia      CLOUDY    72  68  87 E10       29.79F
J F K          CLOUDY    73  68  84 E10       29.82F
Boston         CLOUDY    65  58  78 NE3       29.94
Pittsburg      CLOUDY    68  68 100 W5        29.80F
Akron          PTCLDY    68  64  87 W7        29.81F
Cleveland      CLOUDY    69  65  86 SW3       29.80F
Cincinnati     PTCLDY    68  68 100 SW6       29.86F
Columbus       CLEAR     65  65 100 CALM      29.83F
Detroit        CLOUDY    67  65  93 NW5       29.81F
Chicago O`Hare MOCLDY    69  61  75 NE15      29.91R
Minneapolis    CLEAR     63  56  78 CALM      30.04R
Indianapolis   PTCLDY    71  68  90 W3        29.86R
Toronto Canada CLOUDY    68  57  68 E5        29.72F

$$




USA.gov is the U.S. government's official web portal to all federal, state and local government web resources and services.